Track COSMOS 568 now! 10-day predictions COSMOS 568 is classified as:
1 06679U 73037E 21108.52503833 -.00000007 00000-0 49401-4 0 9999 2 06679 74.0160 272.7745 0067016 60.1828 357.1853 12.58910672199458